Find Starlink 37821

NORAD ID: 100404 Int'l Des: 2026-192 Owner: SPXS Country: US Constellation: starlink operational

当前视图

正在加载3D地球...

About Starlink 37821

Starlink 37821 (NORAD 100404) is a starlink constellation satellite launched Aug 21, 2026 by SPXS of US. with a mass of 575.00 kg.

即将过境

Passes for default location (London). Set your location on the main map for personalized predictions.

高度历史

Loading altitude history...

两行轨道根数

1 A0404U 26192A 26264.22451432 .00026581 00000-0 48410-3 0 9993
2 A0404 53.1592 303.1745 0001476 83.4767 276.6410 15.49323332 6019
Epoch: Sep 21, 2026 • Age: 7 hours

当前状态

高度 418.6 km
远地点 / 近地点 N/A
速度 7.66 km/s
星下点 14.23°N, 73.65°W
发射日期 Aug 21, 2026
运行时间 30 days
类型 internet

技术详情

分类 Payload
质量 575.00 kg
干质量 530.00 kg
长度 0.30 m
跨度 29.00 m
形状 ? Box + pan
制造商 SPXS
平台类型 Starlink V2MO
阶段状态 In Orbit
所有者/国家 SPXS/US

Most Searched